This demonstration page uses our WeatherBlox Daily Observations layout. Learn more.

Left ArrowRight Arrow

Hourly Observations for April 11, 2022

Temp ( °F °C ) Dew Point ( °F °C ) Humidity (%) Winds ( mph kmh ) Pressure ( in mb ) Visibility ( mi km ) Precip ( " mm )
12:53 am 00:53 Cloudy 56 13.3 29 -1.7 36 36 WNW 9 15 29.78 1008 10 16 0.00 0.00
1:53 am 01:53 Cloudy 55 12.8 30 -1.1 38 38 WSW 6 9 29.77 1008 10 16 0.00 0.00
2:53 am 02:53 Cloudy 54 12.2 32 0 43 43 VRB 3 6 29.72 1007 10 16 0.00 0.00
3:53 am 03:53 Cloudy 55 12.8 34 1.1 45 45 SSE 14 22 29.70 1006 10 16 0.00 0.00
4:53 am 04:53 Cloudy 52 11.1 37 2.8 57 57 SSE 7 11 29.65 1004 10 16 0.00 0.00
5:53 am 05:53 Cloudy 53 11.7 38 3.3 57 57 SW 10 17 29.62 1003 10 16 0.00 0.00
6:53 am 06:53 Cloudy 52 11.1 41 5 66 66 SSW 12 19 29.64 1004 10 16 0.00 0.00
7:53 am 07:53 Cloudy 52 11.1 40 4.4 64 64 S 17 28 29.63 1003 10 16 0.00 0.00
8:53 am 08:53 Mostly Sunny 56 13.3 36 2.2 47 47 SW 14 22 29.65 1004 10 16 0.00 0.00
9:10 am 09:10 Mostly Sunny 55 12.8 30 -1.1 38 38 NW 10 17 29.67 1005 10 16 0.00 0.00
9:53 am 09:53 Mostly Cloudy 53 11.7 23 -5 31 31 WNW 18 30 29.70 1006 10 16 0.00 0.00
10:53 am 10:53 Sunny 55 12.8 20 -6.7 25 25 W 18 30 29.75 1007 10 16 0.00 0.00
11:53 am 11:53 Sunny 55 12.8 16 -8.9 21 21 W 21 33 29.78 1009 10 16 0.00 0.00
12:53 pm 12:53 Sunny 55 12.8 15 -9.4 20 20 W 16 26 29.80 1009 10 16 0.00 0.00
1:53 pm 13:53 Sunny 56 13.3 16 -8.9 21 21 W 17 28 29.80 1009 10 16 0.00 0.00
2:53 pm 14:53 Sunny 57 13.9 17 -8.3 21 21 WNW 17 28 29.81 1010 10 16 0.00 0.00
3:53 pm 15:53 Sunny 55 12.8 26 -3.3 33 33 NW 13 20 29.85 1011 10 16 0.00 0.00
5:53 pm 17:53 undefined 53 11.7 26 -3.3 35 35 WNW 13 20 29.87 1012 10 16 0.00 0.00
6:53 pm 18:53 Sunny 52 11.1 25 -3.9 35 35 WNW 14 22 29.88 1012 10 16 0.00 0.00
7:53 pm 19:53 Clear 49 9.4 26 -3.3 41 41 WNW 10 17 29.91 1013 10 16 0.00 0.00
8:53 pm 20:53 Clear 48 8.9 26 -3.3 42 42 WNW 9 15 29.95 1014 10 16 0.00 0.00
9:53 pm 21:53 Clear 47 8.3 26 -3.3 44 44 NW 12 19 29.98 1015 10 16 0.00 0.00
10:53 pm 22:53 Clear 47 8.3 25 -3.9 42 42 NW 9 15 30.01 1016 10 16 0.00 0.00
11:53 pm 23:53 Clear 46 7.8 25 -3.9 44 44 WNW 7 11 30.02 1017 10 16 0.00 0.00

Powered by AerisWeather